TimeCST,TemperatureF,Dew PointF,Humidity,Sea Level PressureIn,VisibilityMPH,Wind Direction,Wind SpeedMPH,Gust SpeedMPH,PrecipitationIn,Events,Conditions,WindDirDegrees,DateUTC
12:15 AM,7.7,-4.0,59,30.36,10.0,NNW,19.6,26.5,N/A,,Clear,340,2013-01-24 06:15:00
12:35 AM,7.3,-3.6,61,30.37,10.0,NNW,9.2,-,N/A,,Clear,330,2013-01-24 06:35:00
12:55 AM,7.0,-3.6,62,30.38,10.0,NNW,9.2,-,N/A,,Clear,330,2013-01-24 06:55:00
1:15 AM,6.6,-4.0,62,30.41,10.0,NNW,16.1,23.0,N/A,,Clear,340,2013-01-24 07:15:00
1:35 AM,6.4,-4.2,62,30.41,10.0,NNW,13.8,23.0,N/A,,Clear,330,2013-01-24 07:35:00
1:55 AM,5.9,-4.4,63,30.43,10.0,NNW,16.1,19.6,N/A,,Clear,340,2013-01-24 07:55:00
2:15 AM,5.4,-5.3,62,30.44,10.0,North,18.4,-,N/A,,Clear,350,2013-01-24 08:15:00
2:35 AM,5.0,-5.8,61,30.45,10.0,NNW,13.8,21.9,N/A,,Clear,340,2013-01-24 08:35:00
2:55 AM,4.8,-5.8,62,30.46,10.0,NNW,16.1,21.9,N/A,,Clear,340,2013-01-24 08:55:00
3:15 AM,4.5,-5.6,63,30.46,10.0,NNW,16.1,20.7,N/A,,Clear,340,2013-01-24 09:15:00
3:35 AM,4.1,-5.8,64,30.47,10.0,North,18.4,-,N/A,,Clear,350,2013-01-24 09:35:00
3:55 AM,3.7,-6.0,64,30.48,10.0,North,16.1,-,N/A,,Clear,350,2013-01-24 09:55:00
4:15 AM,3.6,-6.2,64,30.49,10.0,North,13.8,17.3,N/A,,Clear,350,2013-01-24 10:15:00
4:35 AM,3.6,-6.2,64,30.50,10.0,North,13.8,-,N/A,,Clear,350,2013-01-24 10:35:00
4:55 AM,3.2,-6.3,65,30.51,10.0,North,13.8,18.4,N/A,,Clear,350,2013-01-24 10:55:00
5:15 AM,3.2,-6.2,65,30.52,10.0,North,13.8,20.7,N/A,,Clear,350,2013-01-24 11:15:00
5:35 AM,3.0,-6.2,66,30.53,10.0,North,13.8,-,N/A,,Clear,350,2013-01-24 11:35:00
5:55 AM,2.8,-6.0,67,30.53,10.0,North,11.5,17.3,N/A,,Clear,350,2013-01-24 11:55:00
6:15 AM,2.7,-6.2,67,30.55,10.0,North,10.4,16.1,N/A,,Clear,350,2013-01-24 12:15:00
6:35 AM,2.3,-6.0,68,30.54,10.0,North,12.7,16.1,N/A,,Clear,350,2013-01-24 12:35:00
6:55 AM,2.3,-6.2,68,30.55,10.0,North,12.7,-,N/A,,Clear,360,2013-01-24 12:55:00
7:15 AM,2.3,-6.3,67,30.55,10.0,North,12.7,17.3,N/A,,Clear,360,2013-01-24 13:15:00
7:35 AM,2.3,-6.2,68,30.56,10.0,North,9.2,-,N/A,,Clear,360,2013-01-24 13:35:00
7:55 AM,2.7,-5.8,68,30.57,10.0,North,10.4,-,N/A,,Clear,360,2013-01-24 13:55:00
8:15 AM,3.0,-5.6,67,30.57,10.0,North,11.5,-,N/A,,Clear,360,2013-01-24 14:15:00
8:35 AM,3.7,-5.1,67,30.59,10.0,North,11.5,-,N/A,,Clear,360,2013-01-24 14:35:00
8:55 AM,4.1,-4.7,67,30.59,10.0,North,12.7,-,N/A,,Clear,350,2013-01-24 14:55:00
9:15 AM,5.0,-4.2,66,30.60,10.0,North,10.4,-,N/A,,Clear,350,2013-01-24 15:15:00
9:35 AM,5.7,-3.6,65,30.60,10.0,NNW,9.2,-,N/A,,Clear,340,2013-01-24 15:35:00
9:55 AM,6.3,-3.1,65,30.60,10.0,North,9.2,-,N/A,,Clear,350,2013-01-24 15:55:00
10:15 AM,7.2,-2.4,65,30.59,10.0,North,6.9,-,N/A,,Clear,350,2013-01-24 16:15:00
10:35 AM,8.4,-1.1,65,30.59,10.0,North,6.9,-,N/A,,Clear,350,2013-01-24 16:35:00
10:55 AM,9.3,-0.2,65,30.59,10.0,North,6.9,-,N/A,,Clear,350,2013-01-24 16:55:00
11:15 AM,10.6,0.5,64,30.58,10.0,North,6.9,-,N/A,,Clear,360,2013-01-24 17:15:00
11:35 AM,11.3,0.7,62,30.58,10.0,North,4.6,-,N/A,,Clear,350,2013-01-24 17:35:00
11:55 AM,12.4,1.0,61,30.56,10.0,North,5.8,-,N/A,,Clear,360,2013-01-24 17:55:00
12:15 PM,13.6,1.4,58,30.55,10.0,NNE,3.5,-,N/A,,Clear,20,2013-01-24 18:15:00
12:35 PM,14.9,1.6,56,30.55,10.0,ENE,4.6,-,N/A,,Clear,60,2013-01-24 18:35:00
12:55 PM,15.8,1.2,53,30.54,10.0,ENE,5.8,-,N/A,,Mostly Cloudy,70,2013-01-24 18:55:00
1:15 PM,16.5,1.2,51,30.54,10.0,East,5.8,-,N/A,,Overcast,90,2013-01-24 19:15:00
1:35 PM,17.8,3.0,53,30.53,10.0,ESE,6.9,-,N/A,,Overcast,120,2013-01-24 19:35:00
1:55 PM,17.2,3.6,55,30.52,10.0,South,4.6,-,N/A,,Mostly Cloudy,170,2013-01-24 19:55:00
2:15 PM,17.6,4.3,56,30.51,10.0,SE,4.6,-,N/A,,Clear,130,2013-01-24 20:15:00
2:35 PM,18.3,4.3,54,30.51,10.0,SE,6.9,-,N/A,,Clear,130,2013-01-24 20:35:00
2:55 PM,18.5,1.8,48,30.50,10.0,SSE,8.1,-,N/A,,Clear,150,2013-01-24 20:55:00
3:15 PM,19.0,2.1,48,30.50,10.0,SSE,6.9,-,N/A,,Clear,150,2013-01-24 21:15:00
3:35 PM,18.9,2.3,49,30.50,10.0,SSE,8.1,-,N/A,,Clear,150,2013-01-24 21:35:00
3:55 PM,18.9,2.3,49,30.49,10.0,SE,9.2,-,N/A,,Clear,130,2013-01-24 21:55:00
4:15 PM,18.9,2.1,48,30.48,10.0,SE,5.8,-,N/A,,Clear,140,2013-01-24 22:15:00
4:35 PM,18.9,2.1,48,30.47,10.0,SE,8.1,-,N/A,,Clear,130,2013-01-24 22:35:00
4:55 PM,19.0,2.5,49,30.48,10.0,SSE,5.8,-,N/A,,Clear,150,2013-01-24 22:55:00
5:15 PM,19.0,2.5,49,30.46,10.0,SE,6.9,-,N/A,,Clear,140,2013-01-24 23:15:00
5:35 PM,19.0,3.2,50,30.45,10.0,SE,5.8,-,N/A,,Clear,140,2013-01-24 23:35:00
5:55 PM,19.0,3.9,52,30.44,10.0,SE,5.8,-,N/A,,Clear,130,2013-01-24 23:55:00
6:15 PM,18.9,4.5,54,30.44,10.0,East,5.8,-,N/A,,Clear,100,2013-01-25 00:15:00
6:35 PM,18.5,5.0,56,30.43,10.0,East,6.9,-,N/A,,Clear,90,2013-01-25 00:35:00
6:55 PM,18.5,3.7,53,30.41,10.0,ESE,10.4,-,N/A,,Clear,110,2013-01-25 00:55:00
7:15 PM,18.9,0.5,45,30.40,10.0,ESE,11.5,-,N/A,,Clear,120,2013-01-25 01:15:00
7:35 PM,18.5,0.1,45,30.41,10.0,ESE,10.4,-,N/A,,Clear,120,2013-01-25 01:35:00
7:55 PM,18.5,-0.9,43,30.40,10.0,SE,10.4,-,N/A,,Clear,130,2013-01-25 01:55:00
8:15 PM,18.5,-0.8,43,30.39,10.0,SE,10.4,-,N/A,,Clear,130,2013-01-25 02:15:00
8:35 PM,18.5,-1.3,42,30.39,10.0,SE,10.4,-,N/A,,Clear,130,2013-01-25 02:35:00
8:55 PM,18.3,-0.6,44,30.39,10.0,SE,9.2,-,N/A,,Clear,130,2013-01-25 02:55:00
9:15 PM,18.1,-0.6,44,30.39,10.0,SE,9.2,-,N/A,,Clear,130,2013-01-25 03:15:00
9:35 PM,18.0,-0.9,44,30.39,10.0,ESE,11.5,-,N/A,,Clear,120,2013-01-25 03:35:00
9:55 PM,17.6,0.5,47,30.36,10.0,ESE,11.5,-,N/A,,Clear,120,2013-01-25 03:55:00
10:15 PM,17.6,1.8,50,30.35,10.0,SE,11.5,18.4,N/A,,Clear,130,2013-01-25 04:15:00
10:35 PM,17.6,2.3,51,30.32,10.0,SE,12.7,-,N/A,,Clear,130,2013-01-25 04:35:00
10:55 PM,17.6,2.1,51,30.33,10.0,SE,9.2,-,N/A,,Clear,130,2013-01-25 04:55:00
11:15 PM,17.6,2.1,51,30.35,10.0,SE,11.5,-,N/A,,Mostly Cloudy,130,2013-01-25 05:15:00
11:35 PM,17.6,2.1,51,30.34,10.0,SE,11.5,-,N/A,,Mostly Cloudy,130,2013-01-25 05:35:00
11:55 PM,17.6,2.1,51,30.34,10.0,SE,12.7,-,N/A,,Mostly Cloudy,140,2013-01-25 05:55:00